| time (UTC) | temp C | wind direction | speed KPH | gust KPH | rain 1hr cm | rain 24hr cm | rain mn cm | humidity % | barometer mb |
| 20260506051126 | 14 | 325 | 0.0 | 0.0 | 0.00 | 0.00 | 0.00 | 95 | 1008.7 |
| 20260506050625 | 14 | 325 | 0.0 | 0.0 | 0.00 | 0.00 | 0.00 | 94 | 1008.8 |
| 20260506050122 | 14 | 325 | 0.0 | 0.0 | 0.00 | 0.00 | 0.00 | 94 | 1009.1 |
| 20260506045115 | 14 | 325 | 0.0 | 0.0 | 0.00 | 0.00 | 0.00 | 92 | 1009.0 |
| 20260506044613 | 14 | 325 | 0.0 | 0.0 | 0.00 | 0.00 | 0.00 | 92 | 1008.8 |
| 20260506044109 | 14 | 325 | 0.0 | 0.0 | 0.00 | 0.00 | 0.00 | 92 | 1009.0 |
| 20260506043607 | 14 | 325 | 0.0 | 0.0 | 0.00 | 0.00 | 0.00 | 91 | 1009.4 |
| 20260506043105 | 14 | 325 | 0.0 | 0.0 | 0.00 | 0.00 | 0.00 | 91 | 1009.0 |
| 20260506042604 | 15 | 325 | 0.0 | 0.0 | 0.00 | 0.00 | 0.00 | 90 | 1009.2 |
| 20260506042101 | 15 | 325 | 0.0 | 0.0 | 0.00 | 0.00 | 0.00 | 89 | 1009.1 |
| 20260506041600 | 15 | 325 | 0.0 | 0.0 | 0.00 | 0.00 | 0.00 | 88 | 1009.4 |
| 20260506041056 | 15 | 325 | 0.0 | 0.0 | 0.00 | 0.00 | 0.00 | 87 | 1009.4 |
| 20260506040554 | 15 | 325 | 0.0 | 0.0 | 0.00 | 0.00 | 0.00 | 86 | 1009.5 |
| 20260506040050 | 15 | 325 | 0.0 | 0.0 | 0.00 | 0.00 | 0.00 | 85 | 1009.6 |
| 20260506035548 | 15 | 325 | 0.0 | 0.0 | 0.00 | 0.00 | 0.00 | 85 | 1009.5 |
| 20260506035044 | 15 | 325 | 0.0 | 0.0 | 0.00 | 0.00 | 0.00 | 84 | 1009.6 |
| 20260506034541 | 15 | 325 | 0.0 | 1.6 | 0.00 | 0.00 | 0.00 | 82 | 1009.2 |
| 20260506034038 | 15 | 325 | 0.0 | 0.0 | 0.00 | 0.00 | 0.00 | 82 | 1009.1 |
| 20260506033535 | 16 | 325 | 0.0 | 0.0 | 0.00 | 0.00 | 0.00 | 82 | 1009.1 |
| 20260506033032 | 16 | 325 | 0.0 | 0.0 | 0.00 | 0.00 | 0.00 | 80 | 1008.7 |
| 20260506032530 | 15 | 324 | 0.0 | 0.0 | 0.00 | 0.00 | 0.00 | 81 | 1009.2 |
| 20260506032026 | 16 | 325 | 0.0 | 0.0 | 0.00 | 0.00 | 0.00 | 82 | 1008.9 |
| 20260506031524 | 16 | 325 | 0.0 | 0.0 | 0.00 | 0.00 | 0.00 | 81 | 1009.1 |
| 20260506031021 | 15 | 324 | 0.0 | 1.6 | 0.00 | 0.00 | 0.00 | 83 | 1009.2 |
| 20260506030519 | 16 | 324 | 1.6 | 1.6 | 0.00 | 0.00 | 0.00 | 84 | 1009.5 |
| 20260506030016 | 16 | 324 | 1.6 | 1.6 | 0.00 | 0.00 | 0.00 | 79 | 1009.2 |
| 20260506025513 | 16 | 325 | 0.0 | 0.0 | 0.00 | 0.00 | 0.00 | 78 | 1009.1 |
| 20260506025009 | 16 | 325 | 0.0 | 0.0 | 0.00 | 0.00 | 0.00 | 79 | 1009.1 |
| 20260506024507 | 16 | 325 | 0.0 | 0.0 | 0.00 | 0.00 | 0.00 | 80 | 1009.0 |
| 20260506024002 | 16 | 325 | 0.0 | 1.6 | 0.00 | 0.00 | 0.00 | 78 | 1009.1 |
| 20260506023459 | 16 | 314 | 0.0 | 3.2 | 0.00 | 0.00 | 0.00 | 76 | 1009.0 |
| 20260506022955 | 16 | 311 | 3.2 | 3.2 | 0.00 | 0.00 | 0.00 | 77 | 1008.9 |
| 20260506022453 | 16 | 170 | 0.0 | 0.0 | 0.00 | 0.00 | 0.00 | 73 | 1008.9 |
| 20260506021950 | 16 | 169 | 0.0 | 0.0 | 0.00 | 0.00 | 0.00 | 74 | 1008.8 |
| 20260506021448 | 17 | 169 | 0.0 | 0.0 | 0.00 | 0.00 | 0.00 | 76 | 1008.9 |
| 20260506020945 | 17 | 169 | 0.0 | 0.0 | 0.00 | 0.00 | 0.00 | 77 | 1009.2 |
| 20260506020443 | 17 | 169 | 0.0 | 0.0 | 0.00 | 0.00 | 0.00 | 73 | 1009.6 |
| 20260506015939 | 17 | 169 | 0.0 | 0.0 | 0.00 | 0.00 | 0.00 | 72 | 1009.4 |
| 20260506015437 | 17 | 170 | 0.0 | 0.0 | 0.00 | 0.00 | 0.00 | 72 | 1009.4 |
| 20260506014934 | 17 | 170 | 0.0 | 0.0 | 0.00 | 0.00 | 0.00 | 68 | 1009.1 |
| 20260506014431 | 17 | 169 | 0.0 | 0.0 | 0.00 | 0.00 | 0.00 | 65 | 1009.1 |
| 20260506013927 | 18 | 144 | 0.0 | 0.0 | 0.00 | 0.00 | 0.00 | 66 | 1009.1 |
| 20260506013425 | 18 | 277 | 0.0 | 1.6 | 0.00 | 0.00 | 0.00 | 64 | 1009.0 |
| 20260506012921 | 19 | 277 | 0.0 | 0.0 | 0.00 | 0.00 | 0.00 | 57 | 1009.2 |
| 20260506012418 | 20 | 278 | 0.0 | 1.6 | 0.00 | 0.00 | 0.00 | 52 | 1009.4 |
| 20260506011915 | 21 | 277 | 1.6 | 3.2 | 0.00 | 0.00 | 0.00 | 48 | 1009.5 |
| 20260506011412 | 21 | 243 | 6.4 | 11.3 | 0.00 | 0.00 | 0.00 | 45 | 1009.6 |
| 20260506010909 | 21 | 319 | 3.2 | 11.3 | 0.00 | 0.00 | 0.00 | 46 | 1009.6 |
| 20260506010407 | 21 | 191 | 3.2 | 14.5 | 0.00 | 0.00 | 0.00 | 47 | 1009.6 |
| 20260506005903 | 21 | 291 | 6.4 | 9.7 | 0.00 | 0.00 | 0.00 | 48 | 1009.7 |
| 20260506005401 | 21 | 258 | 6.4 | 12.9 | 0.00 | 0.00 | 0.00 | 47 | 1009.8 |
| 20260506004856 | 21 | 299 | 6.4 | 16.1 | 0.00 | 0.00 | 0.00 | 49 | 1009.7 |
| 20260506004355 | 17 | 305 | 1.6 | 1.6 | 0.00 | 0.00 | 0.00 | 75 | 1009.8 |
| 20260506003850 | 17 | 220 | 0.0 | 0.0 | 0.00 | 0.00 | 0.00 | 73 | 1009.7 |
| 20260506003346 | 17 | 221 | 0.0 | 0.0 | 0.00 | 0.00 | 0.00 | 72 | 1009.5 |
| 20260506002843 | 18 | 220 | 0.0 | 0.0 | 0.00 | 0.00 | 0.00 | 71 | 1009.6 |
| 20260506002340 | 18 | 220 | 0.0 | 0.0 | 0.00 | 0.00 | 0.00 | 72 | 1009.4 |
| 20260506001835 | 18 | 220 | 0.0 | 0.0 | 0.00 | 0.00 | 0.00 | 71 | 1009.3 |
| 20260506001332 | 18 | 220 | 0.0 | 0.0 | 0.00 | 0.00 | 0.00 | 69 | 1009.3 |
| 20260506000829 | 18 | 220 | 0.0 | 0.0 | 0.00 | 0.00 | 0.00 | 67 | 1009.4 |
| 20260506000329 | 18 | 220 | 0.0 | 1.6 | 0.00 | 0.00 | 0.00 | 68 | 1009.4 |
| 20260505235824 | 19 | 220 | 0.0 | 0.0 | 0.00 | 0.00 | 0.00 | 66 | 1009.4 |
| 20260505235321 | 19 | 221 | 0.0 | 0.0 | 0.00 | 0.00 | 0.00 | 65 | 1009.4 |
| 20260505234818 | 19 | 221 | 0.0 | 0.0 | 0.00 | 0.00 | 0.00 | 65 | 1009.4 |
| 20260505234316 | 20 | 222 | 0.0 | 0.0 | 0.00 | 0.00 | 0.00 | 63 | 1009.3 |
| 20260505233813 | 20 | 222 | 0.0 | 3.2 | 0.00 | 0.00 | 0.00 | 62 | 1009.3 |
| 20260505233310 | 20 | 309 | 0.0 | 0.0 | 0.00 | 0.00 | 0.00 | 60 | 1009.4 |
| 20260505232807 | 21 | 310 | 0.0 | 1.6 | 0.00 | 0.00 | 0.00 | 56 | 1009.3 |
| 20260505232305 | 21 | 311 | 0.0 | 0.0 | 0.00 | 0.00 | 0.00 | 54 | 1009.2 |
| 20260505231801 | 22 | 311 | 0.0 | 0.0 | 0.00 | 0.00 | 0.00 | 52 | 1009.0 |
| 20260505231300 | 22 | 307 | 3.2 | 3.2 | 0.00 | 0.00 | 0.00 | 43 | 1009.2 |
| 20260505230758 | 22 | 217 | 0.0 | 3.2 | 0.00 | 0.00 | 0.00 | 43 | 1009.1 |
| 20260505230254 | 22 | 311 | 3.2 | 4.8 | 0.00 | 0.00 | 0.00 | 43 | 1009.4 |
| 20260505225751 | 22 | 312 | 3.2 | 6.4 | 0.00 | 0.00 | 0.00 | 42 | 1009.5 |
| 20260505225249 | 22 | 310 | 4.8 | 11.3 | 0.00 | 0.00 | 0.00 | 41 | 1009.5 |
| 20260505224743 | 23 | 308 | 6.4 | 12.9 | 0.00 | 0.00 | 0.00 | 43 | 1009.5 |
| 20260505224241 | 23 | 317 | 1.6 | 4.8 | 0.00 | 0.00 | 0.00 | 43 | 1009.4 |
| 20260505223738 | 23 | 311 | 3.2 | 9.7 | 0.00 | 0.00 | 0.00 | 41 | 1009.4 |
| 20260505223234 | 23 | 211 | 6.4 | 9.7 | 0.00 | 0.00 | 0.00 | 43 | 1009.3 |
| 20260505222730 | 23 | 310 | 6.4 | 9.7 | 0.00 | 0.00 | 0.00 | 43 | 1009.5 |
| 20260505222227 | 23 | 231 | 4.8 | 4.8 | 0.00 | 0.00 | 0.00 | 42 | 1009.5 |
| 20260505221724 | 23 | 303 | 6.4 | 11.3 | 0.00 | 0.00 | 0.00 | 41 | 1009.5 |
| 20260505221221 | 23 | 324 | 4.8 | 12.9 | 0.00 | 0.00 | 0.00 | 42 | 1009.5 |
| 20260505220718 | 23 | 182 | 6.4 | 6.4 | 0.00 | 0.00 | 0.00 | 41 | 1009.4 |
| 20260505220216 | 24 | 305 | 9.7 | 11.3 | 0.00 | 0.00 | 0.00 | 40 | 1009.5 |
| 20260505215713 | 23 | 246 | 8.0 | 11.3 | 0.00 | 0.00 | 0.00 | 40 | 1009.9 |
| 20260505215211 | 23 | 190 | 4.8 | 9.7 | 0.00 | 0.00 | 0.00 | 40 | 1009.8 |
| 20260505214708 | 23 | 312 | 6.4 | 16.1 | 0.00 | 0.00 | 0.00 | 43 | 1009.8 |
| 20260505214206 | 23 | 259 | 3.2 | 6.4 | 0.00 | 0.00 | 0.00 | 42 | 1009.8 |
| 20260505213703 | 23 | 179 | 3.2 | 12.9 | 0.00 | 0.00 | 0.00 | 41 | 1009.9 |
| 20260505213200 | 23 | 340 | 6.4 | 20.9 | 0.00 | 0.00 | 0.00 | 41 | 1010.0 |
| 20260505212655 | 23 | 249 | 11.3 | 14.5 | 0.00 | 0.00 | 0.00 | 41 | 1010.2 |
| 20260505212153 | 23 | 262 | 9.7 | 11.3 | 0.00 | 0.00 | 0.00 | 40 | 1010.1 |
| 20260505211650 | 23 | 248 | 11.3 | 16.1 | 0.00 | 0.00 | 0.00 | 40 | 1010.4 |
| 20260505211147 | 23 | 253 | 8.0 | 12.9 | 0.00 | 0.00 | 0.00 | 42 | 1010.3 |
| 20260505210644 | 23 | 261 | 8.0 | 17.7 | 0.00 | 0.00 | 0.00 | 43 | 1010.1 |
| 20260505210140 | 23 | 313 | 3.2 | 9.7 | 0.00 | 0.00 | 0.00 | 42 | 1010.4 |
| 20260505205638 | 23 | 323 | 17.7 | 20.9 | 0.00 | 0.00 | 0.00 | 40 | 1010.2 |
| 20260505205136 | 24 | 223 | 9.7 | 11.3 | 0.00 | 0.00 | 0.00 | 40 | 1010.1 |
| 20260505204627 | 24 | 215 | 4.8 | 12.9 | 0.00 | 0.00 | 0.00 | 41 | 1010.2 |
| 20260505204125 | 23 | 242 | 6.4 | 16.1 | 0.00 | 0.00 | 0.00 | 42 | 1010.5 |
| 20260505203621 | 23 | 240 | 3.2 | 24.1 | 0.00 | 0.00 | 0.00 | 41 | 1010.6 |
| 20260505203118 | 23 | 320 | 12.9 | 14.5 | 0.00 | 0.00 | 0.00 | 42 | 1010.2 |
| 20260505202614 | 23 | 307 | 4.8 | 20.9 | 0.00 | 0.00 | 0.00 | 41 | 1010.3 |
| 20260505202110 | 23 | 302 | 9.7 | 16.1 | 0.00 | 0.00 | 0.00 | 41 | 1010.4 |
| 20260505201607 | 23 | 321 | 9.7 | 25.7 | 0.00 | 0.00 | 0.00 | 42 | 1010.2 |
| 20260505201105 | 23 | 307 | 4.8 | 20.9 | 0.00 | 0.00 | 0.00 | 41 | 1010.1 |
| 20260505200602 | 23 | 281 | 9.7 | 20.9 | 0.00 | 0.00 | 0.00 | 41 | 1010.2 |
| 20260505200059 | 23 | 261 | 11.3 | 17.7 | 0.00 | 0.00 | 0.00 | 41 | 1010.4 |
| 20260505195555 | 23 | 246 | 20.9 | 27.4 | 0.00 | 0.00 | 0.00 | 40 | 1010.6 |
| 20260505195053 | 23 | 242 | 9.7 | 20.9 | 0.00 | 0.00 | 0.00 | 43 | 1010.5 |
| 20260505194550 | 23 | 280 | 11.3 | 37.0 | 0.00 | 0.00 | 0.00 | 43 | 1010.4 |
| 20260505194045 | 23 | 293 | 8.0 | 17.7 | 0.00 | 0.00 | 0.00 | 43 | 1010.5 |
| 20260505193543 | 23 | 264 | 11.3 | 16.1 | 0.00 | 0.00 | 0.00 | 43 | 1010.4 |
| 20260505193040 | 23 | 224 | 11.3 | 17.7 | 0.00 | 0.00 | 0.00 | 40 | 1010.7 |
| 20260505192538 | 23 | 299 | 12.9 | 27.4 | 0.00 | 0.00 | 0.00 | 42 | 1010.6 |
| 20260505192036 | 23 | 313 | 9.7 | 14.5 | 0.00 | 0.00 | 0.00 | 42 | 1010.5 |
| 20260505191534 | 23 | 254 | 8.0 | 16.1 | 0.00 | 0.00 | 0.00 | 42 | 1010.6 |
| 20260505191031 | 23 | 226 | 6.4 | 9.7 | 0.00 | 0.00 | 0.00 | 45 | 1010.5 |
| 20260505190526 | 23 | 268 | 6.4 | 11.3 | 0.00 | 0.00 | 0.00 | 44 | 1010.4 |
| 20260505190022 | 24 | 330 | 17.7 | 25.7 | 0.00 | 0.00 | 0.00 | 43 | 1010.7 |
| 20260505185519 | 23 | 299 | 8.0 | 24.1 | 0.00 | 0.00 | 0.00 | 44 | 1010.6 |
| 20260505185015 | 24 | 305 | 3.2 | 11.3 | 0.00 | 0.00 | 0.00 | 44 | 1010.3 |
| 20260505184513 | 24 | 311 | 4.8 | 11.3 | 0.00 | 0.00 | 0.00 | 41 | 1010.6 |
| 20260505184009 | 24 | 206 | 11.3 | 17.7 | 0.00 | 0.00 | 0.00 | 42 | 1010.7 |
| 20260505183506 | 24 | 313 | 6.4 | 24.1 | 0.00 | 0.00 | 0.00 | 44 | 1011.1 |
| 20260505183003 | 24 | 203 | 8.0 | 25.7 | 0.00 | 0.00 | 0.00 | 43 | 1010.7 |
| 20260505182500 | 24 | 270 | 9.7 | 24.1 | 0.00 | 0.00 | 0.00 | 43 | 1011.1 |
| 20260505181955 | 24 | 207 | 14.5 | 17.7 | 0.00 | 0.00 | 0.00 | 42 | 1010.8 |
| 20260505181453 | 24 | 241 | 3.2 | 17.7 | 0.00 | 0.00 | 0.00 | 40 | 1010.8 |
| 20260505180950 | 24 | 225 | 17.7 | 25.7 | 0.00 | 0.00 | 0.00 | 40 | 1010.7 |
| 20260505180446 | 24 | 132 | 6.4 | 17.7 | 0.00 | 0.00 | 0.00 | 39 | 1011.1 |
| 20260505175943 | 24 | 233 | 17.7 | 24.1 | 0.00 | 0.00 | 0.00 | 41 | 1010.6 |
| 20260505175439 | 24 | 316 | 9.7 | 24.1 | 0.00 | 0.00 | 0.00 | 42 | 1010.9 |
| 20260505174936 | 23 | 311 | 6.4 | 25.7 | 0.00 | 0.00 | 0.00 | 43 | 1010.5 |
| 20260505174433 | 24 | 282 | 8.0 | 22.5 | 0.00 | 0.00 | 0.00 | 43 | 1010.7 |
| 20260505173929 | 23 | 325 | 12.9 | 17.7 | 0.00 | 0.00 | 0.00 | 45 | 1010.7 |
| 20260505173426 | 24 | 244 | 8.0 | 16.1 | 0.00 | 0.00 | 0.00 | 42 | 1010.5 |
| 20260505172923 | 24 | 241 | 6.4 | 20.9 | 0.00 | 0.00 | 0.00 | 44 | 1010.7 |
| 20260505172421 | 24 | 321 | 22.5 | 30.6 | 0.00 | 0.00 | 0.00 | 43 | 1010.7 |
| 20260505171920 | 24 | 255 | 19.3 | 22.5 | 0.00 | 0.00 | 0.00 | 42 | 1011.2 |
| 20260505171417 | 24 | 314 | 12.9 | 20.9 | 0.00 | 0.00 | 0.00 | 43 | 1011.1 |
| 20260505170914 | 24 | 187 | 9.7 | 12.9 | 0.00 | 0.00 | 0.00 | 43 | 1011.1 |
| 20260505170411 | 24 | 243 | 3.2 | 14.5 | 0.00 | 0.00 | 0.00 | 44 | 1010.9 |
| 20260505165906 | 24 | 203 | 14.5 | 29.0 | 0.00 | 0.00 | 0.00 | 44 | 1011.4 |
| 20260505165402 | 24 | 183 | 6.4 | 16.1 | 0.00 | 0.00 | 0.00 | 43 | 1010.9 |
| 20260505164857 | 24 | 214 | 8.0 | 14.5 | 0.00 | 0.00 | 0.00 | 45 | 1011.3 |
| 20260505164354 | 24 | 310 | 6.4 | 16.1 | 0.00 | 0.00 | 0.00 | 43 | 1011.5 |
| 20260505163853 | 23 | 255 | 6.4 | 17.7 | 0.00 | 0.00 | 0.00 | 43 | 1011.4 |
| 20260505163351 | 23 | 254 | 6.4 | 22.5 | 0.00 | 0.00 | 0.00 | 46 | 1011.4 |
| 20260505162850 | 23 | 259 | 9.7 | 12.9 | 0.00 | 0.00 | 0.00 | 45 | 1011.4 |
| 20260505162345 | 23 | 276 | 12.9 | 14.5 | 0.00 | 0.00 | 0.00 | 45 | 1011.4 |
| 20260505161843 | 23 | 301 | 6.4 | 22.5 | 0.00 | 0.00 | 0.00 | 47 | 1011.3 |
| 20260505161339 | 23 | 272 | 8.0 | 11.3 | 0.00 | 0.00 | 0.00 | 44 | 1011.5 |
| 20260505160837 | 23 | 257 | 14.5 | 17.7 | 0.00 | 0.00 | 0.00 | 43 | 1011.8 |
| 20260505160335 | 23 | 313 | 22.5 | 29.0 | 0.00 | 0.00 | 0.00 | 46 | 1011.4 |
| 20260505153314 | 22 | 317 | 14.5 | 30.6 | 0.00 | 0.00 | 0.00 | 48 | 1011.8 |
| 20260505152811 | 23 | 309 | 22.5 | 33.8 | 0.00 | 0.00 | 0.00 | 47 | 1011.7 |
| 20260505152308 | 22 | 248 | 12.9 | 22.5 | 0.00 | 0.00 | 0.00 | 47 | 1012.1 |
| 20260505151807 | 22 | 241 | 12.9 | 17.7 | 0.00 | 0.00 | 0.00 | 47 | 1011.9 |
| 20260505151305 | 22 | 264 | 9.7 | 14.5 | 0.00 | 0.00 | 0.00 | 50 | 1011.8 |
| 20260505150802 | 22 | 298 | 12.9 | 29.0 | 0.00 | 0.00 | 0.00 | 50 | 1011.4 |
| 20260505150259 | 22 | 174 | 9.7 | 14.5 | 0.00 | 0.00 | 0.00 | 48 | 1011.6 |
| 20260505140229 | 21 | 263 | 6.4 | 11.3 | 0.00 | 0.00 | 0.00 | 50 | 1012.0 |
| 20260505130153 | 20 | 220 | 4.8 | 9.7 | 0.00 | 0.00 | 0.00 | 55 | 1011.9 |
| 20260505124642 | 19 | 247 | 4.8 | 4.8 | 0.00 | 0.00 | 0.00 | 55 | 1012.0 |
| 20260505124139 | 19 | 240 | 4.8 | 6.4 | 0.00 | 0.00 | 0.00 | 55 | 1012.0 |
| 20260505123635 | 19 | 170 | 4.8 | 6.4 | 0.00 | 0.00 | 0.00 | 56 | 1011.9 |
| 20260505123132 | 19 | 268 | 1.6 | 3.2 | 0.00 | 0.00 | 0.00 | 56 | 1012.0 |
| 20260505122628 | 18 | 149 | 1.6 | 4.8 | 0.00 | 0.00 | 0.00 | 57 | 1012.0 |
| 20260505122126 | 18 | 164 | 1.6 | 4.8 | 0.00 | 0.00 | 0.00 | 57 | 1012.0 |
| 20260505121622 | 18 | 313 | 0.0 | 1.6 | 0.00 | 0.00 | 0.00 | 58 | 1012.1 |
| 20260505121119 | 18 | 262 | 1.6 | 1.6 | 0.00 | 0.00 | 0.00 | 60 | 1011.8 |
| 20260505120615 | 17 | 246 | 0.0 | 1.6 | 0.00 | 0.00 | 0.00 | 62 | 1011.9 |
| 20260505120111 | 17 | 177 | 0.0 | 3.2 | 0.00 | 0.00 | 0.00 | 66 | 1012.2 |
| 20260505115605 | 17 | 110 | 1.6 | 4.8 | 0.00 | 0.00 | 0.00 | 61 | 1011.9 |
| 20260505115103 | 18 | 261 | 3.2 | 6.4 | 0.00 | 0.00 | 0.00 | 61 | 1012.2 |
| 20260505114600 | 17 | 233 | 1.6 | 3.2 | 0.00 | 0.00 | 0.00 | 64 | 1012.0 |
| 20260505114056 | 17 | 99 | 1.6 | 3.2 | 0.00 | 0.00 | 0.00 | 66 | 1011.9 |
| 20260505113553 | 17 | 224 | 0.0 | 1.6 | 0.00 | 0.00 | 0.00 | 65 | 1012.0 |
| 20260505113050 | 17 | 275 | 0.0 | 3.2 | 0.00 | 0.00 | 0.00 | 61 | 1011.7 |
| 20260505112546 | 17 | 74 | 0.0 | 4.8 | 0.00 | 0.00 | 0.00 | 61 | 1011.7 |
| 20260505112045 | 17 | 338 | 0.0 | 1.6 | 0.00 | 0.00 | 0.00 | 64 | 1011.9 |
| 20260505111543 | 16 | 279 | 0.0 | 0.0 | 0.00 | 0.00 | 0.00 | 66 | 1012.0 |
| 20260505111040 | 16 | 268 | 1.6 | 1.6 | 0.00 | 0.00 | 0.00 | 67 | 1012.0 |
| 20260505110536 | 16 | 113 | 1.6 | 3.2 | 0.00 | 0.00 | 0.00 | 71 | 1011.7 |
| 20260505102009 | 15 | 69 | 0.0 | 3.2 | 0.00 | 0.00 | 0.00 | 69 | 1011.6 |
| 20260505101507 | 16 | 198 | 1.6 | 3.2 | 0.00 | 0.00 | 0.00 | 69 | 1011.3 |
| 20260505101003 | 16 | 295 | 0.0 | 0.0 | 0.00 | 0.00 | 0.00 | 69 | 1011.4 |
| 20260505100500 | 15 | 313 | 0.0 | 3.2 | 0.00 | 0.00 | 0.00 | 71 | 1011.3 |
| 20260505095957 | 14 | 187 | 0.0 | 0.0 | 0.00 | 0.00 | 0.00 | 77 | 1011.1 |
| 20260505095453 | 14 | 257 | 1.6 | 1.6 | 0.00 | 0.00 | 0.00 | 77 | 1011.2 |
| 20260505094949 | 14 | 233 | 0.0 | 1.6 | 0.00 | 0.00 | 0.00 | 79 | 1010.9 |
| 20260505094446 | 14 | 100 | 1.6 | 3.2 | 0.00 | 0.00 | 0.00 | 74 | 1010.8 |
| 20260505093943 | 14 | 68 | 0.0 | 9.7 | 0.00 | 0.00 | 0.00 | 77 | 1010.8 |
| 20260505093439 | 13 | 165 | 0.0 | 1.6 | 0.00 | 0.00 | 0.00 | 79 | 1010.7 |
| 20260505092937 | 13 | 231 | 3.2 | 4.8 | 0.00 | 0.00 | 0.00 | 72 | 1010.8 |
| 20260505092434 | 14 | 169 | 0.0 | 0.0 | 0.00 | 0.00 | 0.00 | 78 | 1010.7 |
| 20260505091932 | 14 | 170 | 1.6 | 3.2 | 0.00 | 0.00 | 0.00 | 76 | 1010.6 |
| 20260505091429 | 14 | 237 | 1.6 | 3.2 | 0.00 | 0.00 | 0.00 | 78 | 1010.5 |
| 20260505090927 | 15 | 306 | 1.6 | 1.6 | 0.00 | 0.00 | 0.00 | 75 | 1010.6 |
| 20260505090425 | 15 | 151 | 0.0 | 0.0 | 0.00 | 0.00 | 0.00 | 72 | 1010.5 |
| 20260505085922 | 16 | 260 | 0.0 | 0.0 | 0.00 | 0.00 | 0.00 | 69 | 1010.4 |
| 20260505085420 | 16 | 187 | 3.2 | 3.2 | 0.00 | 0.00 | 0.00 | 67 | 1010.5 |
| 20260505084918 | 17 | 183 | 3.2 | 6.4 | 0.00 | 0.00 | 0.00 | 65 | 1010.6 |
| 20260505084416 | 16 | 249 | 0.0 | 11.3 | 0.00 | 0.00 | 0.00 | 63 | 1010.3 |
| 20260505083914 | 15 | 162 | 0.0 | 1.6 | 0.00 | 0.00 | 0.00 | 72 | 1010.4 |
| 20260505083411 | 15 | 162 | 3.2 | 3.2 | 0.00 | 0.00 | 0.00 | 74 | 1010.4 |
| 20260505082907 | 15 | 229 | 1.6 | 3.2 | 0.00 | 0.00 | 0.00 | 74 | 1010.3 |
| 20260505082403 | 16 | 340 | 0.0 | 3.2 | 0.00 | 0.00 | 0.00 | 70 | 1010.3 |
| 20260505081900 | 17 | 322 | 0.0 | 3.2 | 0.00 | 0.00 | 0.00 | 65 | 1010.1 |
| 20260505081356 | 17 | 251 | 1.6 | 3.2 | 0.00 | 0.00 | 0.00 | 62 | 1010.1 |
| 20260505080853 | 16 | 311 | 1.6 | 4.8 | 0.00 | 0.00 | 0.00 | 66 | 1010.1 |
| 20260505080349 | 15 | 150 | 0.0 | 4.8 | 0.00 | 0.00 | 0.00 | 75 | 1010.2 |
| 20260505075845 | 14 | 344 | 0.0 | 1.6 | 0.00 | 0.00 | 0.00 | 76 | 1009.9 |
| 20260505075342 | 15 | 264 | 3.2 | 4.8 | 0.00 | 0.00 | 0.00 | 74 | 1009.9 |
| 20260505074839 | 15 | 210 | 1.6 | 11.3 | 0.00 | 0.00 | 0.00 | 75 | 1010.0 |
| 20260505074336 | 13 | 222 | 1.6 | 11.3 | 0.00 | 0.00 | 0.00 | 76 | 1010.0 |
| 20260505073833 | 12 | 311 | 0.0 | 0.0 | 0.00 | 0.00 | 0.00 | 87 | 1009.8 |
| 20260505073331 | 12 | 312 | 0.0 | 0.0 | 0.00 | 0.00 | 0.00 | 86 | 1010.0 |
| 20260505072828 | 12 | 312 | 1.6 | 4.8 | 0.00 | 0.00 | 0.00 | 87 | 1010.1 |
| 20260505072324 | 12 | 294 | 0.0 | 0.0 | 0.00 | 0.00 | 0.00 | 86 | 1010.1 |
| 20260505071820 | 12 | 299 | 0.0 | 0.0 | 0.00 | 0.00 | 0.00 | 85 | 1010.2 |
| 20260505071317 | 12 | 296 | 0.0 | 0.0 | 0.00 | 0.00 | 0.00 | 86 | 1010.1 |
| 20260505070815 | 12 | 2 | 0.0 | 0.0 | 0.00 | 0.00 | 0.00 | 88 | 1009.9 |
| 20260505070311 | 11 | 233 | 0.0 | 0.0 | 0.00 | 0.00 | 0.00 | 93 | 1010.0 |
| 20260505065806 | 11 | 304 | 0.0 | 0.0 | 0.00 | 0.00 | 0.00 | 95 | 1009.8 |
| 20260505065304 | 11 | 300 | 0.0 | 0.0 | 0.00 | 0.00 | 0.00 | 95 | 1010.0 |
| 20260505064800 | 11 | 256 | 0.0 | 3.2 | 0.00 | 0.00 | 0.00 | 95 | 1009.9 |
| 20260505064258 | 10 | 290 | 0.0 | 1.6 | 0.00 | 0.00 | 0.00 | 96 | 1009.9 |
| 20260505063755 | 10 | 269 | 0.0 | 1.6 | 0.00 | 0.00 | 0.00 | 96 | 1010.1 |
| 20260505063252 | 11 | 268 | 0.0 | 0.0 | 0.00 | 0.00 | 0.00 | 96 | 1010.2 |
| 20260505062748 | 10 | 268 | 0.0 | 0.0 | 0.00 | 0.00 | 0.00 | 96 | 1010.1 |
| 20260505062246 | 10 | 23 | 0.0 | 0.0 | 0.00 | 0.00 | 0.00 | 97 | 1010.1 |
| 20260505061742 | 10 | 23 | 1.6 | 1.6 | 0.00 | 0.00 | 0.00 | 97 | 1010.1 |
| 20260505061240 | 10 | 23 | 0.0 | 0.0 | 0.00 | 0.00 | 0.00 | 97 | 1010.1 |
| 20260505060737 | 10 | 23 | 1.6 | 3.2 | 0.00 | 0.00 | 0.00 | 97 | 1010.1 |
| 20260505060235 | 10 | 267 | 0.0 | 1.6 | 0.00 | 0.00 | 0.00 | 97 | 1010.3 |